Paris / Charles De Gaulle, France

9:46 AM CEST on March 28, 2017 (GMT +0200)
Charles de Gaulle

Weather History for LFPG - April, 2014

Change the Weather History Date:

Monday, April 7, 2014

  Actual Average Record
Temperature  
Mean Temperature 64 °F -  
Max Temperature 73 °F 60 °F 73 °F (2011)
Min Temperature 54 °F 44 °F 30 °F (2003)
Degree Days  
Heating Degree Days 2    
Growing Degree Days 14 (Base 50)    
Moisture  
Dew Point 52 °F    
Average Humidity 71    
Maximum Humidity 94    
Minimum Humidity 33    
Precipitation  
Precipitation 0.20 in - - ()
Sea Level Pressure  
Sea Level Pressure 29.95 in    
Wind  
Wind Speed 9 mph ()    
Max Wind Speed 23 mph    
Max Gust Speed 50 mph    
Visibility 8.1 miles    
Events Rain , Thunderstorm    
Averages and records for this station are not official NWS values.
T = Trace of Precipitation, MM = Missing Value Source: Averaged Metar Reports

Daily Weather History Graph

Daily Weather History Graph

Search for Another Location

Airport or City:

Trip Planner

Search our weather history database for the weather conditions in past years. The results will help you decide how hot, cold, wet, or windy it might be!

Date:

Astronomy

Apr. 07, 2014 Rise Set
Actual Time 7:15 AM CEST 8:29 PM CEST
Civil Twilight 6:42 AM CEST 9:02 PM CEST
Nautical Twilight 6:03 AM CEST 9:41 PM CEST
Astronomical Twilight 5:21 AM CEST 10:24 PM CEST
Moon 12:42 PM CEST (4/7) 3:11 AM CEST (4/7)
Length of Visible Light 14h 19m
Length of Day
13h 14m
Waxing Crescent, 51% of the Moon is Illuminated
Apr 7
Waxing Crescent
Apr 15
Full
Apr 22
Last Quarter
Apr 29
New
May 7
First Quarter

Hourly Weather History & Observations

Time (CEST) Temp. Dew Point Humidity Pressure Visibility Wind Dir Wind Speed Gust Speed Precip Events Conditions
12:00 AM 57 °F 53 °F 81% 30.09 in 12 mi SSE 5.8 mph - -   Scattered Clouds
12:00 AM 57.2 °F 53.6 °F 88% 30.09 in - SSE 5.8 mph - N/A   Clear
12:30 AM 57.2 °F 53.6 °F 88% 30.09 in - SSE 6.9 mph - N/A   Clear
1:00 AM 57 °F 53 °F 83% 30.09 in 12 mi South 8.1 mph - -   Partly Cloudy
1:00 AM 57.2 °F 53.6 °F 88% 30.09 in - South 8.1 mph - N/A   Clear
1:30 AM 57.2 °F 53.6 °F 88% 30.09 in - South 6.9 mph - N/A   Clear
2:00 AM 56 °F 54 °F 89% 30.09 in 9 mi South 6.9 mph - -   Scattered Clouds
2:00 AM 55.4 °F 53.6 °F 94% 30.06 in - South 6.9 mph - N/A   Clear
2:30 AM 55.4 °F 53.6 °F 94% 30.06 in - SSE 6.9 mph - N/A   Clear
3:00 AM 56 °F 54 °F 89% 30.08 in 6 mi South 6.9 mph - -   Partly Cloudy
3:00 AM 55.4 °F 53.6 °F 94% 30.06 in - South 6.9 mph - N/A   Clear
3:30 AM 55.4 °F 51.8 °F 88% 30.06 in - SSE 5.8 mph - N/A   Clear
4:00 AM 55 °F 53 °F 89% 30.07 in 6 mi SSE 3.5 mph - -   Partly Cloudy
4:00 AM 55.4 °F 53.6 °F 94% 30.06 in - SSE 3.5 mph - N/A   Clear
4:30 AM 53.6 °F 51.8 °F 94% 30.06 in 3.7 mi SSE 4.6 mph - N/A   Mostly Cloudy
5:00 AM 55 °F 53 °F 92% 30.06 in 6 mi SSE 4.6 mph - -   Mostly Cloudy
5:00 AM 55.4 °F 53.6 °F 94% 30.04 in 5.6 mi SSE 4.6 mph - N/A   Mostly Cloudy
5:30 AM 55.4 °F 53.6 °F 94% 30.04 in 5.6 mi SSE 4.6 mph - N/A   Mostly Cloudy
6:00 AM 55 °F 54 °F 94% 30.05 in 6 mi South 5.8 mph - -   Mostly Cloudy
6:00 AM 55.4 °F 53.6 °F 94% 30.04 in 5.6 mi SSE 5.8 mph - N/A   Mostly Cloudy
6:30 AM 55.4 °F 53.6 °F 94% 30.04 in 5.0 mi Variable 2.3 mph - N/A   Mostly Cloudy
7:00 AM 55 °F 53 °F 92% 30.04 in 4 mi SSE 2.3 mph - -   Scattered Clouds
7:00 AM 55.4 °F 53.6 °F 94% 30.04 in 4.3 mi SSE 2.3 mph - N/A   Mostly Cloudy
7:30 AM 55.4 °F 53.6 °F 94% 30.01 in 4.3 mi SE 4.6 mph - N/A   Scattered Clouds
8:00 AM 55 °F 54 °F 93% 30.03 in 6 mi SSE 5.8 mph - -   Scattered Clouds
8:00 AM 55.4 °F 53.6 °F 94% 30.01 in 5.6 mi SSE 5.8 mph - N/A   Unknown
8:30 AM 55.4 °F 53.6 °F 94% 30.01 in 4.3 mi SSE 4.6 mph - N/A   Mostly Cloudy
9:00 AM 55 °F 54 °F 94% 30.02 in 5 mi SSE 8.1 mph - -   Partly Cloudy
9:00 AM 55.4 °F 53.6 °F 94% 30.01 in 5.0 mi SSE 8.1 mph - N/A   Mostly Cloudy
9:30 AM 55.4 °F 53.6 °F 94% 30.01 in 4.3 mi SSE 9.2 mph - N/A   Scattered Clouds
10:00 AM 56 °F 54 °F 91% 30.01 in 6 mi SSE 10.4 mph - -   Partly Cloudy
10:00 AM 55.4 °F 53.6 °F 94% 30.01 in 6.2 mi SSE 10.4 mph - N/A   Scattered Clouds
10:30 AM 59.0 °F 55.4 °F 88% 30.01 in 6.2 mi South 11.5 mph - N/A   Mostly Cloudy
11:00 AM 61 °F 55 °F 74% 29.99 in 6 mi SSE 10.4 mph - -   Partly Cloudy
11:00 AM 60.8 °F 55.4 °F 82% 29.98 in 6.2 mi SSE 10.4 mph - N/A   Mostly Cloudy
11:30 AM 62.6 °F 53.6 °F 72% 29.98 in - SSE 11.5 mph - N/A   Clear
12:00 PM 66 °F 53 °F 53% 29.96 in 12 mi SSE 13.8 mph - -   Scattered Clouds
12:00 PM 66.2 °F 53.6 °F 64% 29.95 in 6.2 mi SSE 13.8 mph - N/A   Mostly Cloudy
12:30 PM 66.2 °F 51.8 °F 60% 29.95 in 6.2 mi SSE 16.1 mph - N/A   Mostly Cloudy
1:00 PM 68 °F 50 °F 41% 29.93 in 12 mi SSE 16.1 mph - -   Scattered Clouds
1:00 PM 68.0 °F 50.0 °F 52% 29.92 in 6.2 mi SSE 16.1 mph 31.1 mph N/A   Mostly Cloudy
1:30 PM 68.0 °F 50.0 °F 52% 29.92 in - South 16.1 mph 28.8 mph N/A   Clear
2:00 PM 68 °F 49 °F 39% 29.90 in 12 mi South 16.1 mph - -   Partly Cloudy
2:00 PM 68.0 °F 48.2 °F 49% 29.89 in - South 16.1 mph - N/A   Clear
2:30 PM 69.8 °F 48.2 °F 46% 29.89 in - South 16.1 mph - N/A   Clear
3:00 PM 68 °F 49 °F 40% 29.87 in 12 mi SSE 13.8 mph - -   Mostly Cloudy
3:00 PM 68.0 °F 50.0 °F 52% 29.86 in - SSE 12.7 mph - N/A   Clear
3:30 PM 69.8 °F 51.8 °F 53% 29.86 in - South 12.7 mph - N/A   Clear
4:00 PM 71 °F 51 °F 38% 29.84 in 16 mi SSE 15.0 mph - -   Scattered Clouds
4:00 PM 71.6 °F 51.8 °F 50% 29.83 in - SSE 15.0 mph - N/A   Clear
4:30 PM 71.6 °F 50.0 °F 46% 29.83 in - South 12.7 mph - N/A   Clear
5:00 PM 72 °F 49 °F 33% 29.82 in 16 mi SSW 17.3 mph - -   Scattered Clouds
5:00 PM 71.6 °F 50.0 °F 46% 29.83 in - South 16.1 mph - N/A   Clear
5:30 PM 73.4 °F 50.0 °F 44% 29.80 in - SSW 18.4 mph - N/A   Clear
6:00 PM 73 °F 50 °F 34% 29.80 in 16 mi SSW 19.6 mph - -   Mostly Cloudy
6:00 PM 73.4 °F 50.0 °F 44% 29.80 in - SSW 19.6 mph - N/A   Clear
6:30 PM 71.6 °F 51.8 °F 50% 29.80 in 6.2 mi SW 21.9 mph - N/A   Scattered Clouds
7:00 PM 71 °F 52 °F 40% 29.80 in 16 mi SW 20.7 mph - - Thunderstorm Thunderstorm
7:00 PM 71.6 °F 51.8 °F 50% 29.80 in 6.2 mi SW 21.9 mph - N/A Thunderstorm Mostly Cloudy
7:30 PM 60.8 °F 53.6 °F 77% 29.83 in 6.2 mi SW 23.0 mph 49.5 mph N/A Rain , Thunderstorm Light Thunderstorms with Small Hail
8:00 PM 63 °F 56 °F 71% 29.82 in 34 mi SW 11.5 mph - -   Clear
8:00 PM 62.6 °F 55.4 °F 77% 29.83 in 6.2 mi SW 11.5 mph - N/A   Mostly Cloudy
8:30 PM 64.4 °F 50.0 °F 59% 29.83 in 6.2 mi SW 19.6 mph - N/A   Mostly Cloudy
9:00 PM 65 °F 50 °F 48% 29.85 in 19 mi SW 23.0 mph - - Rain Light Rain Showers
9:00 PM 64.4 °F 50.0 °F 59% 29.83 in 6.2 mi SW 21.9 mph - N/A   Mostly Cloudy
9:30 PM 64.4 °F 50.0 °F 59% 29.86 in 6.2 mi SW 17.3 mph - N/A   Mostly Cloudy
10:00 PM 63 °F 50 °F 54% 29.88 in 19 mi WSW 20.7 mph - - Rain Light Rain Showers
10:00 PM 62.6 °F 50.0 °F 63% 29.86 in 6.2 mi WSW 20.7 mph - N/A   Mostly Cloudy
10:30 PM 62.6 °F 50.0 °F 63% 29.89 in 6.2 mi SW 19.6 mph - N/A   Mostly Cloudy
11:00 PM 62 °F 49 °F 52% 29.89 in 19 mi SW 21.9 mph - -   Partly Cloudy
11:00 PM 62.6 °F 48.2 °F 59% 29.89 in 6.2 mi SW 20.7 mph 33.4 mph N/A   Mostly Cloudy
11:30 PM 60.8 °F 50.0 °F 68% 29.89 in 6.2 mi SW 16.1 mph - N/A   Mostly Cloudy